Bournemouth, United Kingdom

10:39 PM BST on July 25, 2017 (GMT +0100)
Bournemouth

Weather History for EGHH - October, 2012

Change the Weather History Date:

Tuesday, October 2, 2012

  Actual Average Record
Temperature  
Mean Temperature 56 °F -  
Max Temperature 63 °F 58 °F 73 °F (2011)
Min Temperature 50 °F 44 °F 39 °F (1996)
Degree Days  
Heating Degree Days 8    
Growing Degree Days 6 (Base 50)    
Moisture  
Dew Point 53 °F    
Average Humidity 85    
Maximum Humidity 94    
Minimum Humidity 65    
Precipitation  
Precipitation 0.16 in 0.11 in - ()
Sea Level Pressure  
Sea Level Pressure 29.82 in    
Wind  
Wind Speed 10 mph ()    
Max Wind Speed 22 mph    
Max Gust Speed 31 mph    
Visibility 7.2 miles    
Events Rain    
Averages and records for this station are not official NWS values.
T = Trace of Precipitation, MM = Missing Value Source: Averaged Metar Reports

Daily Weather History Graph

Daily Weather History Graph

Search for Another Location

Airport or City:

Trip Planner

Search our weather history database for the weather conditions in past years. The results will help you decide how hot, cold, wet, or windy it might be!

Date:

Astronomy

Oct. 02, 2012 Rise Set
Actual Time 7:09 AM BST 6:42 PM BST
Civil Twilight 6:36 AM BST 7:15 PM BST
Nautical Twilight 5:58 AM BST 7:53 PM BST
Astronomical Twilight 5:19 AM BST 8:32 PM BST
Moon 7:24 PM BST (10/2) 9:43 AM BST (10/2)
Length of Visible Light 12h 38m
Length of Day
11h 32m
Waning Gibbous, 95% of the Moon is Illuminated
Oct 2
Waning Gibbous
Oct 8
Last Quarter
Oct 15
New
Oct 22
First Quarter
Oct 29
Full

Hourly Weather History & Observations

Time (BST) Temp. Dew Point Humidity Pressure Visibility Wind Dir Wind Speed Gust Speed Precip Events Conditions
12:50 AM 54 °F 50 °F 82% 29.92 in 15 mi WSW 6.9 mph - -   Mostly Cloudy
1:50 AM 51.8 °F 48.2 °F 88% 29.89 in - West 5.8 mph - N/A   Clear
3:50 AM 54 °F 52 °F 90% 29.90 in 15 mi WSW 4.6 mph - - Rain Rain
5:20 AM 53.6 °F 51.8 °F 94% 29.86 in - WSW 5.8 mph - N/A   Clear
5:50 AM 53.6 °F 51.8 °F 94% 29.86 in - WSW 5.8 mph - N/A   Clear
6:20 AM 53.6 °F 51.8 °F 94% 29.86 in 6.2 mi WSW 5.8 mph - N/A   Scattered Clouds
6:50 AM 52 °F 50 °F 89% 29.88 in 11 mi West 1.2 mph - -  
6:50 AM 51.8 °F 50.0 °F 94% 29.86 in 6.2 mi West 2.3 mph - N/A   Scattered Clouds
7:20 AM 53.6 °F 51.8 °F 94% 29.86 in 6.2 mi South 3.5 mph - N/A   Partly Cloudy
7:50 AM 55.4 °F 51.8 °F 88% 29.86 in 6.2 mi South 4.6 mph - N/A   Partly Cloudy
8:20 AM 55.4 °F 51.8 °F 88% 29.86 in 6.2 mi SSW 5.8 mph - N/A   Partly Cloudy
8:50 AM 57.2 °F 53.6 °F 88% 29.86 in 6.2 mi SW 8.1 mph - N/A   Scattered Clouds
9:20 AM 57.2 °F 53.6 °F 88% 29.86 in 6.2 mi SW 11.5 mph - N/A   Scattered Clouds
9:50 AM 59 °F 54 °F 77% 29.87 in 12 mi SW 12.7 mph - - Rain Rain
9:50 AM 59.0 °F 53.6 °F 82% 29.86 in 6.2 mi SW 12.7 mph - N/A   Scattered Clouds
10:20 AM 60.8 °F 55.4 °F 82% 29.86 in 6.2 mi SW 16.1 mph - N/A   Scattered Clouds
10:50 AM 59.0 °F 51.8 °F 77% 29.86 in 6.2 mi WSW 19.6 mph - N/A   Scattered Clouds
11:20 AM 59.0 °F 53.6 °F 82% 29.86 in 6.2 mi WSW 18.4 mph 29.9 mph N/A   Scattered Clouds
11:50 AM 59.0 °F 55.4 °F 88% 29.86 in 6.2 mi WSW 12.7 mph 25.3 mph N/A   Scattered Clouds
12:20 PM 60.8 °F 53.6 °F 77% 29.86 in 6.2 mi SW 17.3 mph - N/A   Scattered Clouds
12:50 PM 61 °F 52 °F 65% 29.85 in 15 mi SW 19.6 mph - -   Scattered Clouds
1:20 PM 62.6 °F 53.6 °F 72% 29.83 in 6.2 mi SW 18.4 mph 29.9 mph N/A   Scattered Clouds
1:50 PM 59.0 °F 55.4 °F 88% 29.83 in 6.2 mi SW 16.1 mph - N/A   Scattered Clouds
2:20 PM 60.8 °F 53.6 °F 77% 29.80 in 6.2 mi SW 19.6 mph - N/A   Scattered Clouds
2:50 PM 62.6 °F 55.4 °F 77% 29.80 in 6.2 mi SW 18.4 mph 31.1 mph N/A   Scattered Clouds
3:20 PM 60.8 °F 53.6 °F 77% 29.80 in 6.2 mi SW 19.6 mph - N/A   Scattered Clouds
3:50 PM 60 °F 53 °F 70% 29.81 in 14 mi SW 21.9 mph - -   Partly Cloudy
3:50 PM 60.8 °F 53.6 °F 77% 29.80 in 6.2 mi SW 18.4 mph - N/A   Scattered Clouds
4:20 PM 60.8 °F 53.6 °F 77% 29.80 in 6.2 mi SW 17.3 mph 28.8 mph N/A   Mostly Cloudy
4:50 PM 59.0 °F 53.6 °F 82% 29.77 in 6.2 mi SW 17.3 mph - N/A Rain Light Rain Showers
5:20 PM 57.2 °F 53.6 °F 88% 29.77 in 4.3 mi SW 16.1 mph 27.6 mph N/A Rain Light Rain Showers
5:50 PM 57.2 °F 55.4 °F 94% 29.77 in 4.3 mi SW 15.0 mph - N/A Rain Rain Showers
6:20 PM 57.2 °F 53.6 °F 88% 29.77 in 5.0 mi SW 16.1 mph 27.6 mph N/A Rain Rain
6:50 PM 56 °F 54 °F 90% 29.78 in 6 mi SW 13.8 mph - - Rain Rain
6:50 PM 55.4 °F 53.6 °F 94% 29.77 in 5.0 mi SW 13.8 mph - N/A Rain Light Rain
7:20 PM 57.2 °F 53.6 °F 88% 29.77 in 6.2 mi SW 13.8 mph - N/A Rain Light Rain
7:50 PM 57.2 °F 53.6 °F 88% 29.74 in 6.2 mi SW 13.8 mph - N/A Rain Light Rain
8:20 PM 57.2 °F 53.6 °F 88% 29.74 in 6.2 mi SW 16.1 mph - N/A   Scattered Clouds
8:50 PM 57.2 °F 53.6 °F 88% 29.74 in 6.2 mi SW 16.1 mph - N/A   Scattered Clouds
9:20 PM 57.2 °F 53.6 °F 88% 29.74 in 6.2 mi SW 13.8 mph - N/A   Scattered Clouds
9:50 PM 57 °F 54 °F 84% 29.75 in 11 mi WSW 18.4 mph - - Rain Rain
9:50 PM 57.2 °F 53.6 °F 88% 29.74 in 6.2 mi WSW 19.6 mph - N/A   Scattered Clouds
10:20 PM 57.2 °F 53.6 °F 88% 29.74 in 6.2 mi SW 16.1 mph - N/A   Scattered Clouds
10:50 PM 59.0 °F 55.4 °F 88% 29.71 in 6.2 mi SW 18.4 mph - N/A Rain Light Rain
11:20 PM 57.2 °F 53.6 °F 88% 29.71 in 6.2 mi WSW 15.0 mph - N/A Rain Rain